Overview Statistics Trail Chart Weather Telemetry Raw packets
 

This is the latest recevied weather packets stored in our database for station/object WP3OF-2. If no packets are shown the sender has not sent any weather packets the latest 10 day(s).

<< 54 55 56 57 58 59 60 >>
Time Temp. Humidity Pressure Rain* Wind** Luminosity Snow
1788196652 23.89° C 92% 1026.3 hPa 0 mm - 860 W/m² -
1788196350 23.89° C 92% 1026.3 hPa 0 mm - 589 W/m² -
1788196046 24.44° C 93% 1026.3 hPa 0 mm - 515 W/m² -
1788195742 23.89° C 94% 1026.3 hPa 0 mm - 1014 W/m² -
1788195438 23.89° C 93% 1026.7 hPa 0 mm - 936 W/m² -
1788195134 23.89° C 93% 1026.7 hPa 0 mm - 936 W/m² -
1788194830 23.33° C 94% 1026.7 hPa 0 mm - 931 W/m² -
1788194526 23.33° C 94% 1026.7 hPa 0 mm - 931 W/m² -
1788194220 23.33° C 95% 1027.1 hPa 0 mm - 812 W/m² -
1788193674 23.33° C 95% 1026.7 hPa 0 mm - 919 W/m² -
1788193369 23.33° C 95% 1026.7 hPa 0 mm - 919 W/m² -
1788193062 23.33° C 95% 1026.7 hPa 0 mm - 535 W/m² -
1788192778 23.33° C 95% 1026.7 hPa 0 mm - 475 W/m² -
1788192459 23.89° C 93% 1027.1 hPa 0 mm - 531 W/m² -
1788192154 23.89° C 91% 1027.1 hPa 0 mm - 895 W/m² -
1788191853 23.33° C 92% 1027.1 hPa 0 mm - 904 W/m² -
1788191549 23.33° C 91% 1026.7 hPa 0 mm - 825 W/m² -
1788191245 23.33° C 92% 1026.7 hPa 0 mm - 516 W/m² -
1788190941 23.33° C 93% 1026.7 hPa 0 mm - 457 W/m² -
1788190639 23.33° C 92% 1027.1 hPa 0 mm - 511 W/m² -
1788190329 23.89° C 92% 1026.7 hPa 0 mm - 655 W/m² -
1788190025 23.33° C 95% 1027.1 hPa 0 mm - 905 W/m² -
1788189720 23.33° C 95% 1027.1 hPa 0 mm - 905 W/m² -
1788189415 24.44° C 93% 1026.7 hPa 0 mm - 525 W/m² -
1788189109 24.44° C 93% 1026.7 hPa 0 mm - 571 W/m² -

* Rain latest hour (hover to see other rain measurements)
** Current wind speed in m/s (hover to see current wind gust speed)